Find Starlink 32760

NORAD ID: 62568 Int'l Des: 2025-006 Owner: SPXS Country: US Constellation: starlink operational
LEOCIRCULAR

リアルタイム位置

3D地球を読み込み中...

Starlink 32760について

説明を読み込み中...

次回通過

Passes for default location (London). Set your location on the main map for personalized predictions.

高度履歴

Loading altitude history...

軌道要素

1 62568U 25006Q 26123.83335647 -.00009120 00000-0 -32225-3 0 9994
2 62568 43.0012 341.2992 0001598 267.3115 119.2178 15.27582529 5850
Epoch: May 3, 2026 • Age: 9 hours

現在のステータス

高度 486.6 km
速度 7.62 km/s
衛星直下点 -18.95°S, 110.93°W
打ち上げ日 Jan 10, 2025
運用期間 1.3 years
タイプ internet

技術仕様

分類 Payload
質量 730.00 kg
乾燥質量 700.00 kg
総質量 730.00 kg
長さ 0.30 m
直径 4.10 m
スパン 29.00 m
形状 Box + pan
製造者 SPXS
バスタイプ Starlink V2M
フェーズステータス In Orbit
所有者/国 SPXS/US

Most Searched